Beaumont, TX

7:05 PM CST on February 19, 2017 (GMT -0600)
Beaumont Municipal

Weather History for KBMT - October, 2013

Change the Weather History Date:

Wednesday, October 23, 2013

  Actual Average (KBPT) Record (KBPT)
Temperature  
Mean Temperature 64 °F -  
Max Temperature 80 °F 78 °F 89 °F (2003)
Min Temperature 48 °F 59 °F 39 °F (1952)
Degree Days  
Heating Degree Days 1    
Growing Degree Days 14 (Base 50)    
Moisture  
Dew Point 50 °F    
Average Humidity 71    
Maximum Humidity 100    
Minimum Humidity 23    
Precipitation  
Precipitation 0.00 in - - ()
Sea Level Pressure  
Sea Level Pressure 30.11 in    
Wind  
Wind Speed 2 mph (North)    
Max Wind Speed 7 mph    
Max Gust Speed -    
Visibility 10 miles    
Events      
Averages and records for this station are not official NWS values.
T = Trace of Precipitation, MM = Missing Value Source: NWS Daily Summary

Daily Weather History Graph

Daily Weather History Graph

Search for Another Location

Airport or City:

Trip Planner

Search our weather history database for the weather conditions in past years. The results will help you decide how hot, cold, wet, or windy it might be!

Date:

Astronomy

Oct. 23, 2013 Rise Set
Actual Time 7:24 AM CDT 6:37 PM CDT
Civil Twilight 7:00 AM CDT 7:01 PM CDT
Nautical Twilight 6:31 AM CDT 7:29 PM CDT
Astronomical Twilight 6:04 AM CDT 7:57 PM CDT
Moon 10:19 PM CDT (10/23) 11:31 AM CDT (10/23)
Length of Visible Light 12h 01m
Length of Day
11h 13m
Waning Gibbous, 79% of the Moon is Illuminated
Oct 23
Waning Gibbous
Oct 26
Last Quarter
Nov 3
New
Nov 9
First Quarter
Nov 17
Full

Hourly Weather History & Observations

Time (CDT) Temp. Dew Point Humidity Pressure Visibility Wind Dir Wind Speed Gust Speed Precip Events Conditions
12:15 AM 50.2 °F 50.2 °F 100% 30.08 in 10.0 mi NNW 3.5 mph - N/A   Clear
12:35 AM 51.1 °F 51.1 °F 100% 30.08 in 10.0 mi NNW 3.5 mph - N/A   Clear
12:55 AM 52.5 °F 52.5 °F 100% 30.09 in 10.0 mi Calm Calm - N/A   Clear
1:15 AM 52.2 °F 52.2 °F 100% 30.09 in 10.0 mi Calm Calm - N/A   Clear
1:35 AM 51.8 °F 51.8 °F 100% 30.09 in 10.0 mi NNW 5.8 mph - N/A   Clear
1:55 AM 51.6 °F 51.6 °F 100% 30.09 in 10.0 mi Calm Calm - N/A   Clear
2:15 AM 51.3 °F 51.3 °F 100% 30.09 in 10.0 mi Calm Calm - N/A   Clear
2:35 AM 50.4 °F 50.2 °F 99% 30.08 in 10.0 mi Calm Calm - N/A   Clear
2:55 AM 50.5 °F 50.5 °F 100% 30.08 in 10.0 mi Calm Calm - N/A   Clear
3:15 AM 50.0 °F 50.0 °F 100% 30.08 in 7.0 mi Calm Calm - N/A   Clear
3:35 AM 50.0 °F 50.0 °F 100% 30.08 in 7.0 mi Calm Calm - N/A   Clear
3:55 AM 49.8 °F 49.8 °F 100% 30.08 in 7.0 mi Calm Calm - N/A   Clear
4:15 AM 49.3 °F 49.3 °F 100% 30.08 in 10.0 mi Calm Calm - N/A   Clear
4:35 AM 49.5 °F 49.5 °F 100% 30.08 in 10.0 mi Calm Calm - N/A   Clear
4:55 AM 48.4 °F 48.4 °F 100% 30.08 in 7.0 mi NNW 3.5 mph - N/A   Clear
5:15 AM 49.3 °F 49.3 °F 100% 30.08 in 10.0 mi Calm Calm - N/A   Clear
5:35 AM 49.3 °F 49.3 °F 100% 30.09 in 7.0 mi Calm Calm - N/A   Clear
5:55 AM 49.1 °F 49.1 °F 100% 30.09 in 7.0 mi Calm Calm - N/A   Clear
6:15 AM 48.0 °F 48.0 °F 100% 30.10 in 10.0 mi NNW 3.5 mph - N/A   Clear
6:35 AM 48.2 °F 48.2 °F 100% 30.10 in 10.0 mi Calm Calm - N/A   Clear
6:55 AM 48.6 °F 48.6 °F 100% 30.11 in 7.0 mi Calm Calm - N/A   Clear
7:15 AM 48.4 °F 48.4 °F 100% 30.11 in 10.0 mi Calm Calm - N/A   Clear
7:35 AM 49.5 °F 49.5 °F 100% 30.12 in 10.0 mi Calm Calm - N/A   Clear
7:55 AM 49.6 °F 49.6 °F 100% 30.13 in 10.0 mi Calm Calm - N/A   Clear
8:15 AM 51.6 °F 51.6 °F 100% 30.13 in 10.0 mi Calm Calm - N/A   Clear
8:35 AM 54.9 °F 53.6 °F 96% 30.14 in 10.0 mi Calm Calm - N/A   Clear
8:55 AM 56.8 °F 52.0 °F 84% 30.14 in 10.0 mi Calm Calm - N/A   Clear
9:15 AM 59.2 °F 52.0 °F 77% 30.15 in 10.0 mi Calm Calm - N/A   Clear
9:35 AM 61.2 °F 52.2 °F 72% 30.15 in 10.0 mi Calm Calm - N/A   Clear
9:55 AM 64.8 °F 52.0 °F 63% 30.15 in 10.0 mi North 3.5 mph - N/A   Clear
10:15 AM 67.1 °F 50.4 °F 55% 30.16 in 10.0 mi North 5.8 mph - N/A   Clear
10:35 AM 68.9 °F 49.6 °F 50% 30.15 in 10.0 mi North 3.5 mph - N/A   Clear
10:55 AM 71.2 °F 49.8 °F 47% 30.15 in 10.0 mi North 4.6 mph - N/A   Clear
11:15 AM 72.7 °F 49.5 °F 44% 30.15 in 10.0 mi North 3.5 mph - N/A   Clear
11:35 AM 74.3 °F 48.2 °F 40% 30.15 in 10.0 mi NNE 4.6 mph - N/A   Clear
11:55 AM 76.8 °F 48.6 °F 37% 30.15 in 10.0 mi NE 6.9 mph - N/A   Clear
12:15 PM 76.8 °F 48.7 °F 37% 30.14 in 10.0 mi North 4.6 mph - N/A   Clear
12:35 PM 78.6 °F 48.2 °F 34% 30.13 in 10.0 mi NNE 6.9 mph - N/A   Clear
12:55 PM 78.6 °F 47.7 °F 34% 30.13 in 10.0 mi NE 3.5 mph - N/A   Clear
1:15 PM 79.5 °F 47.5 °F 32% 30.12 in 10.0 mi Calm Calm - N/A   Clear
1:35 PM 80.1 °F 44.6 °F 29% 30.11 in 10.0 mi NNE 6.9 mph - N/A   Clear
1:55 PM 80.1 °F 43.2 °F 27% 30.10 in 10.0 mi NNE 3.5 mph - N/A   Clear
2:15 PM 80.6 °F 42.8 °F 26% 30.10 in 10.0 mi Calm Calm - N/A   Clear
2:35 PM 80.4 °F 38.8 °F 23% 30.09 in 10.0 mi NNE 4.6 mph - N/A   Clear
2:55 PM 79.9 °F 41.2 °F 25% 30.08 in 10.0 mi NE 4.6 mph - N/A   Clear
3:15 PM 80.6 °F 41.4 °F 25% 30.08 in 10.0 mi Calm Calm - N/A   Clear
3:35 PM 80.2 °F 42.1 °F 26% 30.08 in 10.0 mi North 3.5 mph - N/A   Clear
3:55 PM 80.1 °F 43.3 °F 27% 30.09 in 10.0 mi Calm Calm - N/A   Clear
4:15 PM 80.1 °F 43.5 °F 27% 30.09 in 10.0 mi NNW 3.5 mph - N/A   Clear
4:35 PM 79.5 °F 41.5 °F 26% 30.09 in 10.0 mi Calm Calm - N/A   Clear
4:55 PM 79.0 °F 42.8 °F 28% 30.09 in 10.0 mi Calm Calm - N/A   Clear
5:15 PM 78.8 °F 43.5 °F 29% 30.09 in 10.0 mi Calm Calm - N/A   Clear
5:35 PM 78.3 °F 43.0 °F 28% 30.09 in 10.0 mi Calm Calm - N/A   Clear
5:55 PM 77.2 °F 44.8 °F 32% 30.09 in 10.0 mi Calm Calm - N/A   Clear
6:15 PM 75.4 °F 47.1 °F 37% 30.10 in 10.0 mi Calm Calm - N/A   Clear
6:35 PM 67.6 °F 55.0 °F 64% 30.10 in 10.0 mi Calm Calm - N/A   Clear
6:55 PM 66.4 °F 54.3 °F 65% 30.10 in 10.0 mi Calm Calm - N/A   Clear
7:15 PM 63.1 °F 55.9 °F 77% 30.11 in 10.0 mi Calm Calm - N/A   Clear
7:35 PM 62.2 °F 55.6 °F 79% 30.11 in 10.0 mi Calm Calm - N/A   Clear
7:55 PM 61.2 °F 55.2 °F 81% 30.12 in 10.0 mi Calm Calm - N/A   Clear
8:15 PM 60.8 °F 55.2 °F 82% 30.12 in 10.0 mi Calm Calm - N/A   Clear
8:35 PM 60.3 °F 54.9 °F 82% 30.12 in 10.0 mi Calm Calm - N/A   Clear
8:55 PM 59.4 °F 55.2 °F 86% 30.13 in 10.0 mi Calm Calm - N/A   Clear
9:15 PM 59.0 °F 54.5 °F 85% 30.13 in 10.0 mi South 3.5 mph - N/A   Clear
9:35 PM 59.9 °F 53.8 °F 80% 30.13 in 10.0 mi South 3.5 mph - N/A   Clear
9:55 PM 59.2 °F 54.0 °F 83% 30.12 in 10.0 mi Calm Calm - N/A   Clear
10:15 PM 59.7 °F 54.7 °F 83% 30.13 in 10.0 mi Calm Calm - N/A   Clear
10:35 PM 57.6 °F 55.6 °F 93% 30.13 in 10.0 mi Calm Calm - N/A   Clear
10:55 PM 57.2 °F 55.9 °F 96% 30.14 in 10.0 mi Calm Calm - N/A   Clear
11:15 PM 56.5 °F 55.8 °F 97% 30.14 in 10.0 mi Calm Calm - N/A   Clear
11:35 PM 57.4 °F 56.7 °F 97% 30.14 in 10.0 mi Calm Calm - N/A   Clear
11:55 PM 56.7 °F 56.3 °F 99% 30.13 in 10.0 mi Calm Calm - N/A   Clear